When you browse on this site, cookies collect data to enhance your experience and personalize the content and advertising you see.
Visit our Privacy Policy to learn more. By continuing to use the site, you agree to this use of cookies and data.

Météo par heure à Waterloo

Ce jour, 13 Août, Jeudi

Heure Température Précipitation Vent Pression Humidité
00:00 +20°C° 0.2 mm 3 m/s 738 mmHg 86%
01:00 +20°C° 0.7 mm 3 m/s 738 mmHg 88%
02:00 +19°C° 0.7 mm 3 m/s 738 mmHg 91%
03:00 +19°C° 0.7 mm 3 m/s 738 mmHg 94%
04:00 +19°C° 0 mm 3 m/s 738 mmHg 95%
05:00 +19°C° 0 mm 3 m/s 738 mmHg 96%
06:00 +19°C° 0 mm 3 m/s 738 mmHg 96%
07:00 +21°C° 0 mm 3 m/s 738 mmHg 95%
08:00 +22°C° 0 mm 3 m/s 739 mmHg 93%
09:00 +25°C° 0 mm 3 m/s 739 mmHg 91%
10:00 +26°C° 0 mm 4 m/s 739 mmHg 88%
11:00 +27°C° 0 mm 4 m/s 739 mmHg 85%
12:00 +28°C° 0 mm 4 m/s 738 mmHg 82%
13:00 +29°C° 0 mm 4 m/s 738 mmHg 82%
14:00 +29°C° 0 mm 4 m/s 738 mmHg 81%
15:00 +29°C° 0 mm 3 m/s 737 mmHg 80%
16:00 +29°C° 0 mm 3 m/s 737 mmHg 83%
17:00 +28°C° 0 mm 3 m/s 737 mmHg 85%
18:00 +28°C° 0 mm 3 m/s 737 mmHg 88%
19:00 +26°C° 0 mm 3 m/s 737 mmHg 90%
20:00 +25°C° 0 mm 3 m/s 737 mmHg 92%
21:00 +24°C° 0 mm 3 m/s 737 mmHg 94%
22:00 +22°C° 0 mm 3 m/s 737 mmHg 94%
23:00 +22°C° 0 mm 3 m/s 738 mmHg 95%

Demain, 14 Août, Vendredi

Heure Température Précipitation Vent Pression Humidité
00:00 +21°C° 0 mm 3 m/s 738 mmHg 95%
01:00 +21°C° 0 mm 3 m/s 737 mmHg 96%
02:00 +20°C° 0 mm 3 m/s 737 mmHg 96%
03:00 +20°C° 0 mm 2 m/s 737 mmHg 97%
04:00 +20°C° 0 mm 3 m/s 736 mmHg 97%
05:00 +20°C° 0 mm 3 m/s 736 mmHg 98%
06:00 +20°C° 0 mm 3 m/s 736 mmHg 98%
07:00 +21°C° 0 mm 3 m/s 737 mmHg 94%
08:00 +24°C° 0 mm 3 m/s 737 mmHg 91%
09:00 +25°C° 0 mm 3 m/s 737 mmHg 87%
10:00 +26°C° 0 mm 3 m/s 737 mmHg 85%
11:00 +27°C° 0 mm 4 m/s 737 mmHg 82%
12:00 +28°C° 0 mm 4 m/s 737 mmHg 80%
13:00 +28°C° 0 mm 4 m/s 736 mmHg 79%
14:00 +28°C° 0 mm 4 m/s 736 mmHg 79%
15:00 +28°C° 0 mm 4 m/s 736 mmHg 78%
16:00 +28°C° 0 mm 4 m/s 735 mmHg 81%
17:00 +27°C° 0 mm 3 m/s 735 mmHg 84%
18:00 +27°C° 0 mm 3 m/s 735 mmHg 87%
19:00 +26°C° 0 mm 3 m/s 735 mmHg 89%
20:00 +25°C° 0 mm 3 m/s 735 mmHg 92%
21:00 +22°C° 0 mm 3 m/s 735 mmHg 94%
22:00 +22°C° 0.7 mm 3 m/s 735 mmHg 94%
23:00 +22°C° 0.7 mm 3 m/s 736 mmHg 95%

Après-demain, 15 Août, Samedi

Heure Température Précipitation Vent Pression Humidité
00:00 +22°C° 0.7 mm 3 m/s 736 mmHg 95%
01:00 +21°C° 0.6 mm 3 m/s 736 mmHg 96%
02:00 +20°C° 0.6 mm 4 m/s 735 mmHg 96%
03:00 +20°C° 0.6 mm 4 m/s 735 mmHg 96%
04:00 +18°C° 0 mm 4 m/s 735 mmHg 96%
05:00 +16°C° 0 mm 5 m/s 736 mmHg 96%
06:00 +15°C° 0 mm 5 m/s 736 mmHg 96%
07:00 +15°C° 0 mm 5 m/s 736 mmHg 92%
08:00 +16°C° 0 mm 5 m/s 737 mmHg 88%
09:00 +17°C° 0 mm 5 m/s 737 mmHg 85%
10:00 +20°C° 0 mm 5 m/s 737 mmHg 81%
11:00 +21°C° 0 mm 5 m/s 737 mmHg 76%
12:00 +23°C° 0 mm 5 m/s 738 mmHg 72%
13:00 +23°C° 0 mm 5 m/s 738 mmHg 71%
14:00 +23°C° 0 mm 5 m/s 737 mmHg 70%
15:00 +24°C° 0 mm 6 m/s 737 mmHg 69%
16:00 +23°C° 0 mm 5 m/s 737 mmHg 74%
17:00 +22°C° 0 mm 4 m/s 737 mmHg 78%
18:00 +22°C° 0 mm 3 m/s 737 mmHg 82%
19:00 +20°C° 0 mm 3 m/s 737 mmHg 86%
20:00 +19°C° 0 mm 3 m/s 738 mmHg 89%
21:00 +17°C° 0 mm 3 m/s 738 mmHg 92%
22:00 +16°C° 0 mm 3 m/s 738 mmHg 93%
23:00 +16°C° 0 mm 3 m/s 738 mmHg 93%

16 Août, Dimanche

Heure Température Précipitation Vent Pression Humidité
00:00 +14°C° 0 mm 3 m/s 738 mmHg 94%
01:00 +15°C° 0 mm 2 m/s 738 mmHg 93%
02:00 +15°C° 0 mm 2 m/s 738 mmHg 93%
03:00 +15°C° 0 mm 2 m/s 738 mmHg 93%
04:00 +15°C° 0 mm 2 m/s 738 mmHg 93%
05:00 +15°C° 0 mm 2 m/s 739 mmHg 93%
06:00 +15°C° 0 mm 2 m/s 739 mmHg 93%
07:00 +17°C° 0 mm 3 m/s 739 mmHg 88%
08:00 +19°C° 0 mm 3 m/s 739 mmHg 83%
09:00 +21°C° 0 mm 3 m/s 739 mmHg 78%
10:00 +22°C° 0 mm 4 m/s 739 mmHg 74%
11:00 +25°C° 0 mm 4 m/s 739 mmHg 70%
12:00 +26°C° 0 mm 5 m/s 739 mmHg 66%
13:00 +26°C° 0 mm 5 m/s 739 mmHg 65%
14:00 +26°C° 0 mm 5 m/s 739 mmHg 64%
15:00 +26°C° 0 mm 5 m/s 739 mmHg 64%
16:00 +25°C° 0 mm 4 m/s 739 mmHg 68%
17:00 +23°C° 0 mm 4 m/s 739 mmHg 72%
18:00 +22°C° 0 mm 3 m/s 739 mmHg 77%
19:00 +21°C° 0 mm 3 m/s 739 mmHg 80%
20:00 +19°C° 0 mm 3 m/s 739 mmHg 83%
21:00 +18°C° 0 mm 2 m/s 740 mmHg 86%
22:00 +17°C° 0 mm 3 m/s 740 mmHg 88%
23:00 +16°C° 0 mm 3 m/s 740 mmHg 90%

17 Août, Lundi

Heure Température Précipitation Vent Pression Humidité
00:00 +14°C° 0 mm 3 m/s 740 mmHg 91%
01:00 +14°C° 0 mm 3 m/s 740 mmHg 91%
02:00 +13°C° 0 mm 3 m/s 740 mmHg 91%
03:00 +13°C° 0 mm 3 m/s 740 mmHg 90%
04:00 +13°C° 0 mm 3 m/s 740 mmHg 89%
05:00 +13°C° 0 mm 2 m/s 741 mmHg 88%
06:00 +13°C° 0 mm 2 m/s 741 mmHg 87%
07:00 +15°C° 0 mm 2 m/s 741 mmHg 82%
08:00 +17°C° 0 mm 3 m/s 742 mmHg 76%
09:00 +20°C° 0 mm 3 m/s 742 mmHg 71%
10:00 +21°C° 0 mm 3 m/s 742 mmHg 68%
11:00 +22°C° 0 mm 3 m/s 742 mmHg 65%
12:00 +24°C° 0 mm 3 m/s 741 mmHg 61%
13:00 +25°C° 0 mm 3 m/s 741 mmHg 63%
14:00 +25°C° 0 mm 3 m/s 740 mmHg 64%
15:00 +25°C° 0 mm 3 m/s 740 mmHg 65%
16:00 +25°C° 0.1 mm 3 m/s 740 mmHg 71%
17:00 +24°C° 0.1 mm 2 m/s 739 mmHg 77%
18:00 +23°C° 0.1 mm 2 m/s 739 mmHg 83%
19:00 +21°C° 0 mm 2 m/s 739 mmHg 85%
20:00 +20°C° 0 mm 1 m/s 739 mmHg 88%
21:00 +19°C° 0 mm 1 m/s 739 mmHg 91%
22:00 +17°C° 0 mm 2 m/s 739 mmHg 91%
23:00 +16°C° 0 mm 2 m/s 739 mmHg 92%

18 Août, Mardi

Heure Température Précipitation Vent Pression Humidité
00:00 +15°C° 0 mm 2 m/s 739 mmHg 92%
01:00 +15°C° 0 mm 2 m/s 739 mmHg 92%
02:00 +14°C° 0 mm 2 m/s 739 mmHg 92%
03:00 +13°C° 0 mm 2 m/s 739 mmHg 91%
04:00 +13°C° 0 mm 2 m/s 739 mmHg 91%
05:00 +12°C° 0 mm 2 m/s 739 mmHg 91%
06:00 +12°C° 0 mm 2 m/s 739 mmHg 91%
07:00 +14°C° 0 mm 2 m/s 739 mmHg 85%
08:00 +16°C° 0 mm 2 m/s 739 mmHg 79%
09:00 +20°C° 0 mm 1 m/s 740 mmHg 73%
10:00 +21°C° 0 mm 1 m/s 739 mmHg 68%
11:00 +22°C° 0 mm 1 m/s 739 mmHg 63%
12:00 +24°C° 0 mm 1 m/s 739 mmHg 57%
13:00 +24°C° 0 mm 1 m/s 739 mmHg 57%
14:00 +25°C° 0 mm 1 m/s 739 mmHg 57%
15:00 +25°C° 0 mm 1 m/s 738 mmHg 57%
16:00 +24°C° 0 mm 1 m/s 738 mmHg 63%
17:00 +23°C° 0 mm 2 m/s 737 mmHg 69%
18:00 +23°C° 0 mm 2 m/s 737 mmHg 75%
19:00 +20°C° 0 mm 2 m/s 737 mmHg 78%
20:00 +19°C° 0 mm 3 m/s 737 mmHg 81%
21:00 +17°C° 0 mm 3 m/s 737 mmHg 84%
22:00 +17°C° 0.2 mm 3 m/s 737 mmHg 86%
23:00 +16°C° 0.2 mm 2 m/s 736 mmHg 88%
Voir plus